Weather in Macon

France     46°18′35″N   4°49′13″E
temp.,
°C
wind,
m/s
gust,
m/s
humid.,
%
clouds,
%
prec.,
mm/h
press.,
hPa
HPBL,
m
29 january, sat
sat2901:00−1nw22925 0.0 103823
04:00−1nw11915 0.0 103713
07:00−2nw11915 0.0 103713
10:00+2nw11772 0.0 1037155
13:00+7nnw0260100 0.0 1036447
16:00+7nw116973 0.0 1035223
19:00+4nw218792 0.0 103617
22:00+4wnw118889 0.0 103522
30 january, sun
sun3001:00+4nw1192100 0.0 103424
04:00+4nw229587 0.0 103239
07:00+4nw2296100 0.0 103260
10:00+6nnw2693100 0.0 1032404
13:00+8n3673100 0.0 1031998
16:00+8nne367110 0.0 1028931
19:00+3nnw22922 0.0 102820
22:00+2nw229310 0.0 102714
31 january, mon
mon3101:00+1wnw229489 0.0 102620
04:00+1w129472 0.0 102699
07:00+3sw1589100 0.0 1025180
10:00+4sw1692100 0.4 1024388
13:00+7nw597069 0.9 10231457
16:00+6nw6117327 0.3 10231340
19:00+3nw4129398 0.6 1024790
22:00+2nnw4118948 0.5 1027672
1 february, tue
tue101:00+1nw399282 0.6 1028375
04:00−1nw269479 0.0 1029150
07:00−2nw229411 0.0 103033
10:00+1nw138110 0.0 1030306
13:00+4nw357036 0.0 1029944
16:00+4wnw1580100 0.0 1027633
19:00+2s3698100 1.2 1027480
22:00+3s3798100 2.4 1025342
2 february, wed
wed201:00+5ssw1698100 3.8 1024258
04:00+6wsw21097100 0.1 1023464
07:00+7wnw51395100 0.4 1022743
10:00+8nw4108837 0.3 1024688
13:00+9nw487494 0.8 10251155
16:00+9nw367941 0.3 1025873
19:00+6nw22885 0.6 102620
22:00+4nw119190 0.0 102811